Date,TemperatureHighF,TemperatureAvgF,TemperatureLowF,DewpointHighF,DewpointAvgF,DewpointLowF,HumidityHigh,HumidityAvg,HumidityLow,PressureMaxIn,PressureMinIn,WindSpeedMaxMPH,WindSpeedAvgMPH,GustSpeedMaxMPH,PrecipitationSumIn
2013-11-1,76.7,52.4,34.4,41.3,35.7,30.4,86,59,25,30.20,30.03,2,0,5,0.00
2013-11-2,76.8,54.1,34.0,44.5,37.4,30.0,86,58,26,30.06,29.88,7,1,9,0.00
2013-11-3,65.0,48.0,31.6,36.8,23.3,11.7,87,47,13,30.05,29.93,17,3,21,0.00
2013-11-4,68.6,49.8,35.2,25.7,22.0,15.2,65,39,13,30.13,29.94,13,3,22,0.00
2013-11-5,75.3,54.1,38.2,33.4,28.7,24.2,64,41,18,30.25,30.11,5,0,10,0.00
2013-11-6,73.3,52.9,37.2,38.0,33.3,28.4,73,51,25,30.30,30.18,1,0,4,0.00
2013-11-7,77.2,55.1,41.3,38.6,34.9,32.6,73,51,21,30.21,30.05,7,0,9,0.00
2013-11-8,76.0,52.2,35.5,45.7,37.9,31.1,84,62,28,30.11,29.93,5,0,9,0.00
2013-11-9,73.7,50.8,33.7,42.7,35.4,30.0,87,61,27,30.07,29.97,2,0,8,0.00
2013-11-10,72.7,48.6,33.4,40.7,33.5,25.4,88,62,18,30.14,30.05,5,0,10,0.00
2013-11-11,70.3,48.7,30.0,38.4,32.8,26.0,86,59,27,30.21,30.08,1,0,5,0.00
2013-11-12,73.5,55.3,41.3,40.0,36.6,31.6,72,52,23,30.29,30.19,3,0,4,0.00
2013-11-13,82.4,53.0,33.7,43.5,36.4,29.1,84,59,21,30.29,30.09,2,0,4,0.00
2013-11-14,73.3,52.3,38.8,44.5,37.1,26.4,84,60,28,30.12,29.87,8,1,12,0.00
2013-11-15,69.3,49.0,32.5,34.6,25.6,18.4,77,46,15,29.88,29.70,6,0,10,0.00
2013-11-16,67.4,46.4,29.7,39.6,31.1,23.4,83,59,24,29.94,29.78,8,1,11,0.00
2013-11-17,64.8,45.3,30.0,42.5,35.4,27.2,90,71,39,30.11,29.94,2,0,3,0.00
2013-11-18,59.9,44.5,30.3,43.5,36.9,27.4,90,76,51,30.17,30.08,4,0,4,0.04
2013-11-19,56.9,52.3,46.5,53.1,49.7,43.6,95,91,80,30.12,29.94,1,0,3,0.26
2013-11-20,59.2,54.9,51.0,56.4,52.9,47.0,96,93,77,29.94,29.84,1,0,3,0.23
2013-11-21,60.4,57.4,51.6,48.0,11.2,5.2,87,17,13,30.06,29.90,16,8,27,0.01
2013-11-22,55.6,55.4,55.3,5.2,4.4,3.5,13,12,12,30.06,30.06,10,8,12,0.00
2013-11-23,70.4,54.6,31.5,23.9,13.7,1.4,70,28,7,30.13,29.97,13,3,21,0.00
2013-11-24,62.9,40.4,25.4,36.6,27.8,20.4,86,65,30,30.30,30.13,3,0,6,0.00
2013-11-25,62.3,39.7,25.0,37.6,29.6,21.9,89,71,30,30.38,30.27,5,0,5,0.00
2013-11-26,63.7,41.9,27.6,37.6,30.3,25.1,91,68,28,30.33,30.10,2,0,5,0.00
2013-11-27,64.5,40.4,28.7,36.1,30.2,25.6,90,71,32,30.11,29.89,3,0,4,0.00
2013-11-28,71.6,46.2,30.7,39.4,32.4,27.6,90,65,22,30.12,29.93,2,0,3,0.00
2013-11-29,69.8,44.8,29.5,40.2,32.4,26.7,91,67,27,30.26,30.11,4,0,7,0.00
2013-11-30,69.1,45.5,32.2,39.8,33.4,28.5,88,68,27,30.32,30.19,3,0,6,0.00